Location: Krakow
(50.0212°N, 19.9423°E)
Time: 21:42:58
(UTC+02:00)

UWE-3 - Pass Details

Date: 26 April 2024
Orbit: 569 x 652 km, 97.8° (Epoch: 19 May)

Event Time Altitude Azimuth Distance (km) Brightness Sun altitude
Rises 02:17:32 0° 26° (NNE) 2,867 ? -22.7°
Reaches altitude 10° 02:20:10 10° 43° (NE) 1,974 ? -22.5°
Maximum altitude 02:23:26 21° 92° (E) 1,409 ? -22.3°
Enters shadow 02:25:39 15° 130° (SE) 1,705 ? -22.1°
